Date String (YYYY-MM-DD hh:mm:ss) UTC,Instrument flags,absolute air pressure of the measurement (hPa),sample flow rate (lpm),inlet stack bypass flow (lpm),air temperature of the measurement (°C),ambient temperature measured by the external sensor (°C),aerosol sample conditioner tube jacket temperature (°C),OPC LED temperature (°C),internal box temperature (°C),relative humidity of the measurement (%),span deviation,mass concentration of particles derived from Lorenz-Mie calculation of OPC scattering (μg/m³),mass concentration of particles derived from Lorenz-Mie calculation of OPC scattering (μg/m³),mass concentration of particles derived from Lorenz-Mie calculation of OPC scattering (μg/m³)
DateTimeUTC,F1_M11,P_M11,Q1_M11,Q2_M11,T1_M11,T2_M11,T3_M11,T4_M11,T5_M11,U1_M11,ZSPAN_M11,X2_M11,X0_M11,X1_M11
2024-06-06 09:00:00,SystemResetWarning,0831.3,5.00,000.00,029.7,028.0,000.0,038.5,031.2,023.4,0000.0,0003.41,0013.44,0001.36
2024-06-06 09:01:00,SystemResetWarning,0831.3,5.00,000.00,029.8,028.3,000.0,038.4,031.3,023.3,0000.0,0003.40,0013.06,0001.36
2024-06-06 09:02:00,SystemResetWarning,0831.3,5.00,000.00,029.8,028.5,000.0,038.4,031.4,023.3,0000.0,0003.35,0012.62,0001.36
2024-06-06 09:03:00,SystemResetWarning,0831.2,5.00,000.00,029.8,028.8,000.0,038.4,031.5,023.3,0000.0,0003.35,0012.21,0001.37
2024-06-06 09:04:00,SystemResetWarning,0831.2,5.00,000.00,029.9,028.9,000.0,038.4,031.6,023.2,0000.0,0003.35,0012.87,0001.38
2024-06-06 09:05:00,SystemResetWarning,0831.3,5.00,000.00,029.9,029.1,000.0,038.4,031.7,023.2,0000.0,0003.29,0012.53,0001.37
2024-06-06 09:06:00,SystemResetWarning,0831.3,5.00,000.00,030.0,029.2,000.0,038.4,031.7,023.1,0000.0,0003.19,0011.76,0001.37
2024-06-06 09:07:00,SystemResetWarning,0831.3,5.01,000.00,030.0,029.3,000.0,038.4,031.8,023.0,0000.0,0003.18,0011.68,0001.37
2024-06-06 09:08:00,SystemResetWarning,0831.3,5.00,000.00,030.0,029.4,000.0,038.4,031.8,022.9,0000.0,0003.15,0011.97,0001.36
2024-06-06 09:09:00,SystemResetWarning,0831.3,5.00,000.00,030.1,029.5,000.0,038.4,031.9,022.9,0000.0,0003.13,0011.78,0001.35
2024-06-06 09:10:00,SystemResetWarning,0831.3,4.99,000.00,030.1,029.5,000.0,038.4,031.9,022.7,0000.0,0003.13,0012.05,0001.35
2024-06-06 09:11:00,SystemResetWarning,0831.3,4.99,000.00,030.2,029.6,000.0,038.4,031.9,022.7,0000.0,0003.12,0013.33,0001.34
2024-06-06 09:12:00,SystemResetWarning,0831.3,5.00,000.00,030.2,029.7,000.0,038.4,032.0,022.6,0000.0,0003.12,0014.02,0001.34
2024-06-06 09:13:00,SystemResetWarning,0831.4,5.01,000.00,030.3,029.7,000.0,038.5,032.0,022.6,0000.0,0003.12,0013.97,0001.33
2024-06-06 09:14:00,SystemResetWarning,0831.4,5.01,000.00,030.3,029.8,000.0,038.5,032.0,022.5,0000.0,0003.08,0013.59,0001.32
2024-06-06 09:15:00,SystemResetWarning,0831.4,5.00,000.00,030.3,029.8,000.0,038.5,032.0,022.4,0000.0,0003.08,0013.04,0001.31
2024-06-06 09:16:00,SystemResetWarning,0831.4,4.99,000.00,030.4,029.8,000.0,038.6,032.1,022.2,0000.0,0003.12,0013.61,0001.32
2024-06-06 09:17:00,SystemResetWarning,0831.3,5.00,000.00,030.4,029.9,000.0,038.6,032.1,022.0,0000.0,0003.17,0013.77,0001.32
2024-06-06 09:18:00,SystemResetWarning,0831.4,4.99,000.00,030.4,029.9,000.0,038.6,032.2,022.1,0000.0,0003.16,0013.40,0001.32
2024-06-06 09:19:00,SystemResetWarning,0831.5,5.00,000.00,030.5,029.9,000.0,038.6,032.2,022.0,0000.0,0003.14,0013.03,0001.31
2024-06-06 09:20:00,SystemResetWarning,0831.5,5.00,000.00,030.5,030.0,000.0,038.7,032.2,021.9,0000.0,0003.16,0014.92,0001.31
2024-06-06 09:21:00,SystemResetWarning,0831.5,5.00,000.00,030.5,030.0,000.0,038.7,032.3,021.9,0000.0,0003.17,0015.16,0001.30
2024-06-06 09:22:00,SystemResetWarning,0831.5,5.00,000.00,030.5,030.0,000.0,038.7,032.3,021.9,0000.0,0003.20,0013.94,0001.30
2024-06-06 09:23:00,SystemResetWarning,0831.6,5.00,000.00,030.6,030.0,000.0,038.7,032.3,021.7,0000.0,0003.21,0013.25,0001.30
2024-06-06 09:24:00,SystemResetWarning,0831.5,5.00,000.00,030.6,030.0,000.0,038.7,032.3,021.7,0000.0,0003.23,0014.12,0001.30
2024-06-06 09:25:00,SystemResetWarning,0831.6,5.00,000.00,030.6,030.1,000.0,038.8,032.3,021.7,0000.0,0003.21,0014.01,0001.29
2024-06-06 09:26:00,SystemResetWarning,0831.6,5.01,000.00,030.7,030.1,000.0,038.8,032.4,021.7,0000.0,0003.17,0013.61,0001.28
2024-06-06 09:27:00,SystemResetWarning,0831.6,5.00,000.00,030.7,030.1,000.0,038.8,032.4,021.8,0000.0,0003.15,0012.86,0001.28
2024-06-06 09:28:00,SystemResetWarning,0831.6,5.00,000.00,030.7,030.1,000.0,038.9,032.4,021.7,0000.0,0003.13,0013.19,0001.29
2024-06-06 09:29:00,SystemResetWarning,0831.6,5.00,000.00,030.7,030.1,000.0,038.9,032.5,021.4,0000.0,0003.10,0013.57,0001.28
2024-06-06 09:30:00,SystemResetWarning,0831.7,5.00,000.00,030.7,030.2,000.0,038.9,032.5,021.3,0000.0,0003.15,0014.37,0001.29
2024-06-06 09:31:00,SystemResetWarning,0831.6,5.00,000.00,030.8,030.2,000.0,038.9,032.5,021.2,0000.0,0003.15,0013.88,0001.31
2024-06-06 09:32:00,SystemResetWarning,0831.6,5.00,000.00,030.8,030.2,000.0,038.9,032.5,021.5,0000.0,0003.15,0012.58,0001.32
2024-06-06 09:33:00,SystemResetWarning,0831.6,5.00,000.00,030.8,030.2,000.0,039.0,032.5,021.5,0000.0,0003.07,0013.47,0001.32
2024-06-06 09:34:00,SystemResetWarning,0831.5,4.99,000.00,030.7,028.9,000.0,039.0,031.7,021.6,0000.0,0003.07,0014.11,0001.32
2024-06-06 09:35:00,SystemResetWarning,0831.5,5.00,000.00,030.1,026.4,000.0,039.0,030.5,022.4,0000.0,0003.05,0013.94,0001.34
2024-06-06 09:36:00,SystemResetWarning,0831.4,5.01,000.00,029.8,026.3,000.0,039.0,030.3,023.0,0000.0,0003.14,0014.35,0001.35
2024-06-06 09:37:00,SystemResetWarning,0831.4,5.01,000.00,029.7,026.7,000.0,038.8,030.6,023.1,0000.0,0003.17,0015.13,0001.35
2024-06-06 09:38:00,SystemResetWarning,0831.4,5.00,000.00,029.7,027.2,000.0,038.6,030.8,023.4,0000.0,0003.21,0015.59,0001.36
2024-06-06 09:39:00,SystemResetWarning,0831.4,5.00,000.00,029.7,027.6,000.0,038.5,031.0,023.6,0000.0,0003.22,0016.66,0001.34
2024-06-06 09:40:00,SystemResetWarning,0831.4,4.99,000.00,029.7,027.9,000.0,038.5,031.2,023.5,0000.0,0003.28,0016.74,0001.35
2024-06-06 09:41:00,SystemResetWarning,0831.5,5.00,000.00,029.7,028.2,000.0,038.4,031.3,023.6,0000.0,0003.27,0016.73,0001.34
2024-06-06 09:42:00,SystemResetWarning,0831.5,5.00,000.00,029.7,028.4,000.0,038.4,031.4,023.6,0000.0,0003.26,0017.02,0001.33
2024-06-06 09:43:00,SystemResetWarning,0831.5,5.00,000.00,029.8,028.6,000.0,038.3,031.4,023.6,0000.0,0003.32,0017.61,0001.33
2024-06-06 09:44:00,SystemResetWarning,0831.4,5.01,000.00,029.8,028.8,000.0,038.3,031.5,023.6,0000.0,0003.38,0018.17,0001.33
2024-06-06 09:45:00,SystemResetWarning,0831.4,4.99,000.00,029.9,028.9,000.0,038.3,031.5,023.6,0000.0,0003.42,0017.53,0001.33
2024-06-06 09:46:00,SystemResetWarning,0831.5,5.00,000.00,029.9,029.0,000.0,038.3,031.6,023.5,0000.0,0003.42,0017.40,0001.31
2024-06-06 09:47:00,SystemResetWarning,0831.5,5.00,000.00,029.9,029.1,000.0,038.3,031.7,023.5,0000.0,0003.37,0017.43,0001.29
2024-06-06 09:48:00,SystemResetWarning,0831.5,5.00,000.00,030.0,029.2,000.0,038.3,031.7,023.2,0000.0,0003.37,0016.63,0001.28
2024-06-06 09:49:00,SystemResetWarning,0831.6,5.00,000.00,030.0,029.3,000.0,038.3,031.7,023.0,0000.0,0003.39,0016.53,0001.27
2024-06-06 09:50:00,SystemResetWarning,0831.6,5.01,000.00,030.0,029.3,000.0,038.3,031.7,022.9,0000.0,0003.39,0016.26,0001.28
2024-06-06 09:51:00,SystemResetWarning,0831.6,5.00,000.00,030.1,029.4,000.0,038.3,031.8,022.7,0000.0,0003.38,0016.11,0001.26
2024-06-06 09:52:00,SystemResetWarning,0831.6,5.00,000.00,030.1,029.5,000.0,038.3,031.8,022.5,0000.0,0003.41,0017.45,0001.27
2024-06-06 09:53:00,SystemResetWarning,0831.6,5.00,000.00,030.1,029.5,000.0,038.3,031.9,022.6,0000.0,0003.41,0016.33,0001.26
2024-06-06 09:54:00,SystemResetWarning,0831.7,5.00,000.00,030.1,029.5,000.0,038.4,031.9,022.7,0000.0,0003.39,0015.97,0001.26
2024-06-06 09:55:00,SystemResetWarning,0831.7,5.00,000.00,030.2,029.6,000.0,038.4,031.9,022.7,0000.0,0003.38,0015.44,0001.24
2024-06-06 09:56:00,SystemResetWarning,0831.7,5.00,000.00,030.2,029.6,000.0,038.4,032.0,022.6,0000.0,0003.38,0015.05,0001.25
2024-06-06 09:57:00,SystemResetWarning,0831.7,4.99,000.00,030.2,029.7,000.0,038.4,032.0,022.5,0000.0,0003.40,0015.05,0001.26
2024-06-06 09:58:00,SystemResetWarning,0831.7,4.99,000.00,030.3,029.7,000.0,038.5,032.0,022.6,0000.0,0003.40,0015.01,0001.28
2024-06-06 09:59:00,SystemResetWarning,0831.7,5.00,000.00,030.3,029.7,000.0,038.5,032.0,022.7,0000.0,0003.40,0014.78,0001.30
